RH
72 67 61 60 63 62 57 50 48 51 52 51 49 46 49 53 57 63 57 45 39 38 36 34 31 30 29 29 30 30 31 32 32 32 32 33 31 29 28 26 24 23 21 18 15 13 12 11 11 11 12 13 14 13 13 12 11 11 10 10 14 20 23 21 16 13 12 12 12 12 12 12 14 17 21 25 29 32 33 33 34 36 36 34 32
66 62 60 61 62 62 59 52 51 55 56 51 46 45 50 54 58 65 60 48 41 39 38 38 36 35 34 34 36 38 40 41 41 42 44 45 44 42 41 40 39 39 37 35 34 31 28 27 26 26 26 26 27 27 26 24 23 22 19 16 14 15 19 21 19 20 25 27 27 26 24 23 23 24 26 30 33 34 35 35 37 40 41 40 38
68 66 65 65 65 66 64 58 58 62 60 54 48 46 51 56 60 65 61 51 44 42 45 46 42 39 37 37 41 43 45 47 47 49 51 51 51 50 49 47 46 48 49 48 48 47 45 44 44 43 43 42 41 38 36 35 34 33 32 29 27 25 26 29 30 34 39 42 42 41 38 35 34 33 33 35 37 38 41 43 43 43 43 42 40
74 72 71 71 73 75 74 70 66 68 67 59 49 47 53 57 62 67 62 53 46 45 52 55 48 42 40 39 41 44 47 49 50 52 54 55 56 55 54 53 51 52 55 56 56 56 55 54 55 55 54 54 54 53 51 49 45 43 40 38 36 35 35 37 37 39 43 46 49 49 46 43 42 42 41 40 39 41 46 49 48 46 45 43 42
77 77 78 79 81 81 81 78 72 74 76 63 48 48 55 57 63 69 63 54 48 47 56 65 60 54 50 43 40 41 42 45 47 49 50 52 55 55 55 55 54 56 59 60 60 60 59 59 60 62 62 61 61 61 61 61 60 58 53 47 43 42 40 40 40 41 44 47 50 51 49 48 47 45 44 42 42 44 46 49 50 49 47 44 42
84 82 82 83 85 86 85 82 78 81 84 75 63 61 61 59 63 69 65 55 47 48 60 71 68 63 63 60 53 47 42 40 40 41 42 44 46 48 48 48 49 53 56 59 61 61 60 61 62 64 66 65 64 64 64 64 65 65 63 60 56 52 49 46 43 43 42 42 45 49 51 53 51 49 46 43 43 44 46 48 50 48 44 40 37
94 92 92 91 91 91 89 88 87 89 90 89 84 77 72 70 69 70 65 54 49 56 66 70 63 59 65 70 69 63 56 51 47 46 49 50 51 53 53 54 55 53 50 51 55 56 58 60 62 63 64 64 64 65 65 64 64 63 63 63 63 62 62 61 57 53 49 45 44 46 52 59 65 66 62 56 49 46 48 51 48 42 37 34 31
93 93 95 96 96 95 94 95 95 95 94 92 90 85 81 76 69 66 62 56 57 63 65 62 57 56 62 68 70 69 66 64 63 62 63 64 64 66 68 71 73 69 62 55 54 60 67 70 71 72 72 71 70 69 70 71 71 70 69 67 67 67 69 71 72 71 68 64 58 53 55 65 74 74 69 68 66 61 57 52 42 34 32 31 29
90 91 93 96 96 96 94 94 96 98 96 93 91 90 87 78 69 66 62 59 61 61 59 61 61 57 59 65 68 68 68 68 66 66 67 68 69 72 74 77 79 80 79 71 64 71 81 82 80 81 81 83 84 82 81 81 81 82 81 78 76 74 72 73 75 75 74 74 73 68 65 70 75 69 61 64 69 64 52 41 33 30 31 31 30
83 87 90 91 91 92 91 90 92 96 97 95 91 90 90 84 76 68 58 54 56 53 50 59 65 59 57 62 67 68 68 67 66 66 66 67 70 72 73 75 77 80 86 84 78 81 89 91 89 88 87 88 91 90 84 81 83 86 86 84 81 79 78 77 76 73 69 69 73 75 75 77 75 65 52 47 46 41 35 31 30 30 31 31 30
76 81 88 90 90 93 93 91 90 89 92 93 90 88 89 88 84 77 65 55 51 48 47 60 73 69 59 59 62 62 63 65 66 66 66 68 71 74 77 79 80 80 84 87 86 87 92 93 91 89 89 90 90 87 82 80 81 82 81 81 81 81 82 83 82 77 68 63 66 73 78 80 76 62 46 37 32 29 28 28 30 31 32 32 30
75 76 83 88 90 92 91 89 89 86 83 86 91 91 91 92 89 87 84 75 67 66 69 77 85 80 69 63 60 58 59 63 65 67 69 71 74 79 83 84 81 80 82 86 88 88 88 87 84 82 82 82 80 77 78 81 83 81 78 78 80 84 88 90 89 84 75 65 62 64 70 73 71 62 52 43 34 29 28 30 32 33 32 31 30
73 73 74 76 83 91 91 90 93 92 85 86 91 88 88 93 90 86 90 91 87 87 88 89 89 84 77 72 67 66 67 68 72 75 75 77 81 85 85 83 80 79 80 84 83 78 76 76 75 74 74 73 72 70 70 74 78 81 81 81 83 87 92 96 96 93 85 75 67 65 66 67 67 67 62 48 34 28 30 33 34 33 32 32 32
63 66 64 62 69 80 84 86 89 92 91 91 90 86 85 89 86 82 87 93 93 92 90 89 88 86 82 75 68 69 73 73 77 81 82 86 89 85 80 80 81 80 79 82 80 72 69 70 70 69 70 69 69 67 66 65 66 71 75 79 82 86 91 96 99 98 93 86 78 74 75 78 79 75 60 39 29 31 35 36 35 34 34 34 34
56 60 62 61 62 66 71 75 78 83 89 91 92 91 89 87 83 82 86 88 90 90 87 85 85 85 87 82 72 72 77 78 81 85 87 89 86 79 76 76 79 81 82 83 80 73 71 70 66 64 65 65 64 63 63 63 63 63 67 72 78 83 91 97 99 99 99 92 82 77 81 86 81 65 45 32 33 37 37 36 36 36 36 36 36
61 63 69 73 72 71 72 73 72 73 79 83 85 87 87 84 80 80 83 85 86 87 86 85 84 85 88 86 79 81 84 82 82 85 85 80 73 71 74 70 66 68 70 70 69 66 65 63 59 56 56 57 60 61 61 63 62 60 61 65 71 79 91 97 98 100 100 91 83 82 82 75 59 44 37 37 39 40 38 39 40 40 40 41 41
64 68 74 78 80 80 78 78 76 74 73 75 78 80 82 82 78 74 76 79 82 85 86 85 83 83 83 77 70 72 80 83 85 87 84 76 67 64 66 63 55 53 54 54 55 55 54 52 50 48 48 52 59 62 61 61 60 58 57 60 65 73 85 92 93 95 97 93 88 83 72 56 44 41 41 42 42 42 43 44 44 44 45 46 46
71 77 83 85 86 86 84 83 83 82 79 77 78 81 83 83 80 77 76 75 76 80 82 81 78 75 74 69 59 56 64 72 75 75 71 68 62 58 58 58 53 50 49 50 49 47 46 44 42 40 41 47 52 55 56 58 58 56 56 60 64 68 77 83 81 81 88 91 83 70 56 48 45 45 44 44 45 47 47 47 47 47 48 48 49
87 88 90 90 89 89 88 88 87 86 84 80 81 85 87 86 84 84 84 80 76 75 76 76 74 70 69 69 61 52 50 53 55 55 55 57 58 56 53 51 49 49 49 48 45 44 42 40 38 37 38 41 43 45 49 53 57 60 63 65 65 67 76 83 81 79 82 79 67 57 50 47 46 45 46 49 50 50 50 49 49 50 50 51 52
92 91 92 92 91 91 91 91 90 88 86 83 82 84 85 84 83 85 86 84 80 79 78 77 75 73 71 67 60 52 49 51 54 55 55 52 50 48 45 45 47 48 47 45 42 40 38 37 37 38 40 41 41 41 43 47 54 63 69 71 72 74 82 89 86 81 74 63 53 49 47 46 47 49 51 52 52 51 51 50 50 49 49 49 50
91 91 93 94 93 91 90 89 88 88 88 86 85 85 85 85 85 85 85 85 84 83 81 78 74 70 66 61 56 52 50 50 53 55 53 49 44 41 40 42 44 45 43 41 39 37 36 37 38 41 44 44 42 40 41 44 53 65 74 79 80 79 81 82 77 68 58 50 47 47 48 49 52 53 53 52 51 50 49 49 48 47 48 50 51
96 95 96 96 92 89 86 83 82 83 84 83 82 81 82 82 82 81 80 79 78 75 74 71 69 66 63 60 59 58 57 55 54 53 51 49 45 43 42 41 41 40 39 38 38 37 37 37 39 41 42 42 40 39 39 44 54 65 76 83 83 79 76 71 64 55 50 48 48 50 52 53 53 53 52 50 48 48 48 49 49 50 50 49 45
99 99 98 95 92 88 84 82 82 83 82 79 76 74 73 73 74 73 72 71 69 68 67 66 66 65 65 63 62 62 63 63 61 58 55 52 50 49 48 46 44 41 39 39 39 39 38 38 39 39 39 39 38 38 42 51 60 69 79 87 87 82 74 66 57 53 52 52 53 54 53 53 53 53 50 47 48 50 50 50 49 46 40 34 28
98 97 95 94 92 90 88 87 86 84 81 77 74 71 69 68 67 67 66 65 64 64 64 64 64 65 64 63 62 62 64 67 67 64 61 59 57 56 55 54 53 50 47 45 43 42 41 42 42 39 37 36 35 38 40 43 52 66 79 88 90 83 71 62 57 57 56 54 54 54 53 54 55 51 47 48 51 52 49 45 38 31 25 22 21
94 93 92 91 90 87 86 82 77 73 69 66 65 64 63 63 63 62 59 57 54 52 50 49 48 48 48 48 50 54 57 61 63 63 61 60 60 59 59 59 59 57 55 53 51 47 45 46 47 43 37 33 33 36 36 38 53 71 78 81 85 78 66 61 59 57 56 55 55 55 56 57 53 47 47 52 53 48 40 32 26 23 22 23 23
85 84 82 80 76 73 71 68 64 61 59 58 59 60 60 61 63 62 61 60 58 56 53 50 48 47 46 46 47 51 55 59 62 64 64 64 64 64 64 64 63 61 58 56 55 53 49 50 51 49 45 40 36 36 37 43 62 80 81 81 84 78 71 67 64 59 59 59 59 61 60 55 49 48 52 53 45 35 29 25 25 26 25 24 22
72 70 68 66 64 61 59 58 56 55 54 53 53 54 56 58 60 61 62 63 64 64 64 63 63 63 63 63 62 64 66 67 68 69 68 68 69 68 67 66 66 67 66 61 56 54 53 56 60 59 55 51 47 47 47 49 63 79 85 86 86 83 80 76 70 68 69 68 69 67 59 51 50 53 52 42 32 28 28 28 29 28 25 22 21
57 56 55 53 52 51 49 48 47 47 46 47 47 48 48 50 53 55 58 60 63 65 66 67 67 68 68 69 69 70 71 72 71 70 69 69 68 67 66 65 65 68 72 71 63 57 55 57 62 67 67 61 57 56 54 55 64 77 83 84 85 86 86 82 79 81 81 77 73 65 53 50 55 55 44 33 30 31 32 32 30 27 23 22 22
39 38 38 37 36 36 35 35 34 35 35 36 36 37 37 37 38 39 41 44 46 49 50 52 53 54 54 55 55 56 57 56 55 54 54 54 54 51 50 50 52 55 60 62 60 59 60 58 58 64 69 67 65 65 63 61 66 74 79 84 87 86 88 90 90 87 83 77 69 59 54 57 58 50 38 34 34 35 34 32 29 25 24 26 27
16 16 16 16 15 15 14 14 14 14 14 14 14 14 14 14 15 15 15 16 17 18 19 19 20 21 21 21 21 22 21 21 20 21 21 21 22 22 21 23 28 34 41 46 49 53 61 66 65 65 66 67 72 77 74 70 74 83 91 95 94 91 91 93 88 81 79 76 69 62 62 62 55 44 40 39 38 37 34 31 29 27 28 29 25
8 8 7 7 7 7 8 8 8 8 8 8 8 8 8 8 8 7 7 7 7 8 8 7 7 8 7 7 8 8 8 7 7 7 8 7 7 8 7 8 12 18 27 39 48 54 63 72 75 73 72 73 76 79 74 70 77 90 97 97 97 98 97 91 82 80 81 78 72 69 67 60 51 47 48 46 41 38 35 32 31 31 30 25 17
16 16 15 15 15 15 15 15 15 16 16 16 16 16 16 16 16 14 14 14 14 14 14 14 14 14 13 13 13 14 14 14 13 13 14 14 14 14 14 12 12 14 17 23 34 44 56 69 80 83 83 84 86 88 88 86 88 93 96 95 95 98 97 92 88 89 88 84 81 76 67 56 51 52 53 49 44 39 36 35 34 32 26 17 11
28 27 26 26 24 23 23 23 23 23 23 22 23 23 23 23 23 22 20 19 19 18 17 17 16 16 16 16 15 16 16 16 15 15 15 16 17 19 23 24 24 22 19 17 21 27 35 51 71 82 85 86 85 85 88 92 94 95 98 98 98 98 97 97 97 97 95 92 87 77 65 57 55 57 56 52 46 41 38 38 36 28 19 10 8
37 37 36 34 33 32 30 30 30 30 31 31 30 29 26 23 21 19 18 17 17 16 16 16 16 16 16 16 16 17 17 16 17 18 17 18 18 19 22 27 31 34 33 30 27 25 23 29 43 54 58 57 51 47 52 62 72 83 92 96 98 98 98 99 100 99 99 96 86 74 66 61 58 58 58 54 47 43 43 41 32 21 12 8 9
40 40 40 40 39 38 37 36 36 35 34 32 29 24 20 17 15 16 17 17 18 18 19 19 18 17 18 18 18 19 21 23 25 27 30 34 37 37 37 38 40 43 45 44 40 37 34 32 33 36 39 36 30 32 39 43 50 67 84 93 98 100 99 99 100 100 100 96 85 76 71 66 62 61 59 54 49 48 46 38 24 14 9 9 11
42 41 41 42 42 42 41 39 36 32 28 25 22 20 19 19 20 21 21 20 19 19 18 17 17 18 21 24 26 28 31 32 32 35 40 47 53 57 59 61 60 59 57 55 53 51 49 46 42 41 42 39 39 52 66 68 70 83 94 98 99 99 93 89 92 98 100 93 83 78 77 74 70 68 63 56 53 51 43 29 17 10 9 10 12
45 44 43 43 42 43 44 41 36 32 29 27 26 25 26 26 24 22 21 19 18 18 18 18 19 22 27 32 34 35 35 36 38 42 48 54 61 71 80 84 85 81 74 69 65 60 58 58 55 49 44 40 42 57 74 81 87 94 94 89 91 91 83 80 87 98 100 91 81 80 82 81 79 75 67 60 55 48 34 20 12 11 11 11 13
52 52 50 47 45 45 46 45 42 39 37 35 35 34 30 25 22 20 19 19 19 20 22 23 25 28 32 36 37 37 40 45 52 58 63 67 75 87 94 95 94 91 85 81 76 68 62 61 59 52 47 45 48 57 64 67 71 76 74 75 83 85 80 80 90 99 100 92 82 79 82 86 84 77 68 61 53 40 25 14 11 11 11 12 14
61 61 58 55 52 49 49 48 47 45 44 43 41 34 25 20 19 19 19 20 22 24 26 29 32 36 38 39 41 44 49 56 64 72 78 81 85 92 96 95 95 94 89 84 82 77 71 68 63 58 57 55 54 56 58 55 56 58 59 65 78 81 73 72 84 97 100 93 83 78 83 89 87 77 68 61 48 31 18 13 12 12 12 14 16
65 65 62 60 56 52 50 50 50 49 49 47 40 29 20 19 21 20 20 23 26 29 32 36 40 42 43 43 44 46 52 59 67 73 77 79 82 89 94 96 96 92 86 82 80 77 73 69 63 58 55 52 52 55 57 57 66 76 75 71 79 86 79 72 81 95 100 94 86 84 88 90 85 77 69 57 38 22 15 14 13 13 14 15 16
64 63 58 54 51 47 46 47 48 49 50 46 36 26 21 22 22 20 20 25 29 34 39 42 43 44 46 48 50 52 56 62 67 69 69 71 78 89 96 97 94 88 82 78 74 67 62 59 54 50 48 46 45 46 45 50 71 94 96 84 83 92 94 91 93 98 99 96 95 95 93 90 85 78 65 47 27 17 16 15 14 15 16 16 15
56 51 44 41 40 40 42 47 50 51 51 47 37 28 24 23 21 19 20 24 31 39 44 43 42 43 46 50 52 54 55 58 62 66 68 69 75 83 89 91 90 85 79 75 70 65 63 63 59 57 60 62 59 56 59 68 84 99 101 95 93 97 100 99 100 100 99 99 101 100 95 91 86 73 52 31 20 17 17 16 15 16 17 16 15
42 39 36 36 38 41 46 53 56 55 51 46 39 32 27 22 20 20 22 24 29 38 45 47 48 48 50 51 50 47 45 43 46 53 58 59 61 64 68 73 78 80 78 71 60 51 55 66 73 77 85 90 88 87 90 94 98 99 99 100 100 100 99 100 101 100 99 100 100 98 94 89 78 57 34 20 18 19 19 18 18 18 17 17 16
36 37 38 37 38 40 45 51 56 56 53 48 44 39 34 28 22 21 24 26 28 32 37 43 47 47 46 45 42 38 36 35 36 41 46 49 51 54 59 65 70 73 74 71 60 52 61 81 93 96 96 98 99 100 99 96 95 94 94 97 99 100 100 100 99 98 99 99 97 92 87 77 59 37 22 19 21 21 19 19 20 19 19 18 18
37 40 40 39 39 39 39 42 46 48 48 48 46 44 43 39 32 27 25 26 27 29 30 33 36 37 38 38 36 35 36 35 33 34 40 47 52 58 63 66 68 71 75 78 75 73 82 95 101 97 94 94 95 95 95 95 96 96 94 94 96 96 93 91 91 92 93 92 86 77 67 53 37 24 21 22 23 22 21 22 21 21 21 21 20
38 39 40 39 40 40 39 39 40 39 39 41 41 41 42 42 40 37 34 31 31 31 31 31 33 34 36 37 39 42 45 43 36 31 35 45 59 71 76 77 78 81 84 83 81 81 86 94 96 93 88 83 78 74 74 78 83 86 87 89 91 92 91 92 92 90 85 77 67 56 45 34 25 22 24 25 24 23 22 22 22 23 23 23 22
38 38 39 38 38 39 39 40 40 39 38 37 37 36 37 37 37 38 39 38 38 38 38 38 39 40 41 41 42 46 52 53 47 42 42 47 59 73 81 80 80 82 85 87 89 88 85 83 81 78 74 71 70 70 71 72 75 79 83 87 89 91 93 95 91 81 67 55 45 37 31 26 24 25 27 27 25 24 23 23 24 25 24 24 24
37 37 37 37 36 36 35 36 37 36 35 33 32 32 32 31 30 30 32 33 35 36 37 38 39 41 43 46 49 54 58 60 59 60 61 59 60 67 75 76 75 77 80 82 83 81 77 74 76 79 83 87 90 89 85 80 80 86 92 96 97 96 94 91 81 65 48 37 33 30 28 28 29 29 28 26 24 24 25 26 27 27 26 26 26
37 35 34 34 34 31 28 26 25 24 23 22 22 22 21 21 21 22 24 26 28 30 33 35 36 37 38 39 42 46 51 53 56 61 65 65 65 70 77 79 79 80 83 84 83 82 83 87 92 95 97 99 100 99 96 91 89 92 96 99 99 97 91 81 68 52 40 36 36 36 34 33 32 29 27 26 25 27 29 30 30 30 31 30 29
35 30 27 26 26 22 18 15 13 12 11 11 11 11 11 11 12 13 14 15 17 20 23 27 31 36 39 41 40 39 39 39 40 44 52 61 72 82 89 93 93 93 94 95 95 94 96 98 99 100 100 100 99 100 100 99 97 97 98 100 100 97 86 72 60 52 47 44 42 39 35 33 30 27 27 29 30 32 34 36 36 37 39 37 33
25 21 17 16 14 12 10 9 8 7 7 7 6 6 6 6 7 7 8 8 8 10 12 14 19 25 33 41 45 46 43 39 35 32 34 42 54 66 77 87 94 97 99 99 99 99 100 100 100 99 100 101 100 99 100 100 99 99 98 97 95 89 78 68 61 57 51 45 40 36 34 32 31 32 34 37 39 41 43 44 44 45 45 43 38
Wind_Speed
24 23 25 26 25 23 22 22 21 20 20 18 18 19 17 16 14 10 7 8 8 7 8 8 9 10 11 13 13 14 14 13 13 12 11 11 10 10 9 9 9 8 7 7 6 6 6 6 5 5 4 4 3 3 3 3 4 5 5 5 6 6 7 7 8 8 7 5 4 4 4 4 5 5 6 6 5 4 4 4 5 5 6 7 9
21 21 23 24 24 24 24 24 23 22 21 21 21 21 19 17 14 10 10 10 9 9 8 8 9 9 11 12 13 13 13 13 12 11 11 10 9 8 8 8 7 6 6 5 5 5 5 5 4 4 4 3 2 1 1 0 1 3 4 4 5 7 8 8 8 7 6 6 5 5 5 5 6 6 6 6 5 5 6 7 8 9 9 11 12
23 23 24 24 24 24 26 26 24 23 23 23 23 22 21 19 16 12 13 12 10 10 9 9 9 9 10 11 12 12 12 11 11 10 10 9 8 7 6 5 5 5 4 3 2 2 2 2 2 2 1 0 1 2 3 4 4 3 2 2 4 6 8 8 8 7 6 6 6 6 7 8 8 8 8 8 8 8 9 11 12 12 13 14 15
24 24 25 25 25 26 28 29 27 25 25 25 24 24 24 23 20 15 15 14 12 11 11 10 9 9 10 11 11 10 10 9 9 9 9 8 7 6 5 3 3 3 3 3 2 2 1 1 1 1 1 2 3 4 5 6 7 7 7 6 6 6 7 7 7 7 7 7 7 8 10 11 11 11 11 11 11 11 13 14 14 14 15 15 16
25 25 26 25 26 27 28 29 30 29 29 28 28 27 26 25 23 18 17 16 13 13 13 12 11 10 10 10 9 9 9 9 9 8 8 7 7 6 5 4 4 4 4 4 4 4 4 4 4 5 5 6 6 6 7 8 9 10 10 11 10 10 10 9 9 8 8 9 10 11 12 13 14 14 14 15 14 15 15 16 16 16 16 16 17
26 27 28 27 27 28 28 29 31 33 32 31 31 31 30 28 26 20 18 16 15 15 13 11 10 10 9 8 8 9 9 9 9 9 8 8 7 6 6 6 6 7 7 7 7 7 8 8 8 9 10 10 10 10 10 10 11 12 13 13 14 14 14 13 12 11 11 11 12 14 14 15 16 17 17 17 17 18 18 18 18 17 17 18 20
24 26 29 29 28 28 28 29 31 33 33 32 33 33 30 27 26 21 19 18 18 16 12 9 9 10 9 9 9 10 10 10 10 11 10 9 8 8 8 9 9 10 10 10 11 11 11 12 12 13 14 14 14 14 14 14 13 14 14 15 15 16 16 15 15 15 15 15 15 16 17 17 18 19 19 20 20 20 20 19 18 18 18 19 21
12 15 21 27 29 29 29 30 32 34 35 35 36 35 31 27 26 24 21 20 18 15 13 11 12 12 12 12 12 12 12 12 11 11 11 10 10 10 10 11 12 12 13 13 13 13 13 13 14 15 16 16 16 16 16 16 15 15 15 16 16 17 18 18 18 18 18 18 18 18 19 19 20 20 20 20 21 21 20 19 18 19 20 21 22
5 6 10 16 19 22 24 25 27 30 29 28 28 28 26 27 28 24 21 21 18 16 17 16 16 16 15 15 15 14 14 13 13 13 12 12 13 13 13 14 14 14 15 15 15 14 14 14 15 16 17 17 17 17 17 17 17 17 17 17 17 18 19 20 20 20 20 21 21 21 21 21 20 20 19 18 18 19 19 19 20 20 21 22 23
7 7 9 10 11 14 17 17 18 18 16 17 20 22 23 24 25 23 22 21 18 19 21 20 18 19 19 18 17 17 17 16 15 15 15 15 15 16 17 17 17 16 16 17 16 16 16 16 17 18 18 18 18 17 18 19 19 20 20 20 20 19 20 21 22 22 22 22 22 22 22 21 20 20 19 18 18 19 19 20 21 22 23 24 25
7 8 9 10 10 12 14 14 13 12 13 18 20 21 21 22 22 22 22 22 20 21 23 22 20 21 22 21 21 20 19 19 18 18 18 18 18 19 19 19 19 19 18 18 18 19 19 20 20 20 19 19 19 19 20 20 21 22 22 22 23 22 22 22 22 23 22 22 22 22 21 20 20 20 20 20 20 20 20 21 22 23 24 26 27
6 8 11 11 10 11 12 12 13 14 16 19 19 19 20 21 22 22 22 22 21 22 22 22 21 22 24 24 24 23 22 21 21 21 21 21 21 22 21 21 22 21 18 18 19 20 21 22 22 20 19 19 20 20 20 21 22 23 24 25 25 25 25 24 24 24 23 22 22 22 21 21 21 21 21 21 22 22 22 23 24 25 26 27 28
5 7 9 10 10 9 10 10 12 14 14 16 18 19 19 21 23 23 22 22 22 22 22 22 21 22 24 24 24 24 23 23 22 22 23 23 23 23 22 21 21 20 16 17 20 20 21 22 22 21 20 20 21 22 22 22 23 24 26 27 28 28 27 27 26 26 25 25 24 23 23 23 22 22 22 22 23 23 23 24 25 26 27 28 29
5 5 5 6 6 6 7 9 11 12 13 16 19 20 20 23 24 24 24 24 23 23 23 23 23 24 24 24 24 24 24 25 24 24 25 25 24 23 22 21 22 21 18 18 20 20 20 21 21 21 22 22 23 24 24 24 24 24 26 28 29 30 29 29 28 28 28 26 25 26 26 26 25 25 25 25 24 24 25 25 26 27 28 29 30
7 6 5 4 4 5 6 8 10 10 12 15 19 20 21 23 25 24 24 24 24 25 25 25 26 25 24 24 24 24 25 25 24 24 25 25 24 23 23 22 23 23 22 22 23 23 22 23 23 23 23 23 24 24 25 25 25 25 26 28 30 30 29 29 29 29 29 29 28 28 27 27 26 26 26 26 25 25 26 26 27 27 28 29 30
8 8 7 6 6 6 6 9 10 11 12 14 16 18 19 22 24 23 23 25 26 26 26 26 26 23 21 22 24 25 26 25 22 22 23 23 24 24 23 23 24 24 24 24 25 25 25 25 25 24 24 24 24 24 24 24 25 26 27 28 29 29 28 29 30 30 30 30 30 28 27 26 27 26 26 26 26 26 26 26 26 27 28 30 32
7 7 7 6 6 7 7 9 11 13 15 16 16 18 19 21 23 23 23 24 25 26 27 26 25 21 19 21 23 26 27 23 21 23 24 24 25 24 23 23 24 24 24 25 25 26 26 26 26 25 25 25 24 23 23 24 24 25 26 27 29 28 27 28 29 29 29 30 30 29 28 27 27 26 25 25 25 25 25 26 27 29 31 32 34
8 7 5 5 7 7 8 9 11 14 16 18 19 20 20 20 22 23 24 24 24 25 25 25 24 23 22 22 23 25 25 21 19 23 25 25 25 25 24 24 24 25 25 25 25 25 25 26 26 26 26 25 25 24 23 24 24 25 26 27 28 28 27 28 28 27 28 30 30 29 29 28 26 26 25 25 25 25 26 28 29 31 33 35 36
8 8 8 8 9 10 11 11 12 14 16 18 20 21 21 21 21 22 23 24 24 25 25 25 24 23 22 22 22 24 25 23 21 22 23 24 25 25 24 25 25 25 25 26 26 26 27 27 27 27 28 28 27 26 25 24 24 25 26 28 28 27 27 27 27 27 28 29 30 29 28 27 26 25 25 25 25 27 29 31 32 34 37 39 41
10 10 11 11 12 13 13 14 14 15 16 18 19 20 21 21 21 21 23 24 25 25 25 25 24 23 23 23 24 24 25 25 25 24 24 25 25 25 25 26 26 26 28 29 29 29 29 29 28 28 29 29 28 27 27 26 25 26 27 28 28 27 27 28 29 29 29 30 29 28 27 26 26 25 25 26 28 29 31 34 36 39 42 43 45
13 13 13 13 14 14 15 15 16 17 19 20 21 21 22 22 23 23 23 23 23 24 24 25 25 25 26 26 26 26 26 26 27 27 27 27 27 27 28 28 29 30 31 32 32 31 30 29 29 29 29 29 29 29 28 28 27 27 28 28 28 29 29 29 30 30 30 30 28 28 27 26 26 26 27 28 30 32 34 37 40 42 44 45 45
16 16 16 16 17 17 17 17 18 18 20 22 23 23 24 24 24 25 25 25 25 25 26 26 27 27 27 28 28 29 29 30 30 31 31 31 31 31 31 31 32 33 33 34 33 32 31 30 29 29 30 30 30 29 29 29 29 29 29 29 30 31 31 31 31 30 30 29 28 28 27 27 28 28 29 30 32 34 37 40 42 43 43 43 43
19 20 20 21 21 22 23 23 23 22 22 23 24 25 25 26 27 28 29 29 29 30 30 31 31 31 31 32 33 33 33 33 34 34 34 34 34 33 32 33 34 35 35 35 34 34 34 32 31 31 30 30 29 29 29 30 31 31 31 32 33 33 32 31 31 30 30 30 30 29 29 29 30 29 30 32 34 37 38 39 40 40 41 41 41
24 24 25 26 27 28 28 27 27 27 26 26 27 28 28 29 31 32 33 34 34 35 36 37 37 38 38 38 37 36 36 36 36 36 36 36 35 34 34 34 35 35 36 35 35 35 35 35 33 32 30 30 30 30 31 33 34 35 35 35 35 34 33 32 32 32 31 31 31 31 31 31 31 31 32 34 36 37 37 38 38 39 39 40 40
28 29 29 29 29 29 29 29 29 29 29 29 30 31 31 32 33 34 35 36 37 38 39 40 40 41 41 41 40 39 38 38 38 37 37 37 36 36 35 35 36 37 37 37 36 36 37 37 35 34 34 34 33 33 35 38 39 38 37 36 35 34 34 34 34 33 33 33 33 33 33 33 33 33 34 34 35 35 36 36 36 37 38 39 41
28 29 29 29 29 29 30 30 31 31 31 32 32 33 34 35 36 37 37 38 39 39 40 40 41 41 42 42 41 41 40 40 40 39 39 38 38 38 37 38 38 40 40 39 38 38 38 38 37 36 36 37 36 35 36 38 40 39 37 38 38 37 36 36 35 34 34 35 34 34 34 33 33 33 33 33 33 34 34 34 35 36 37 39 40
30 31 31 32 32 33 33 34 34 35 35 36 36 37 37 38 39 39 40 40 41 42 42 43 43 43 43 43 43 43 43 43 43 43 42 42 42 41 41 40 41 42 42 41 39 39 39 38 38 38 38 38 38 37 35 37 40 40 37 38 40 40 37 36 36 35 35 34 34 34 33 32 32 32 31 31 31 31 32 33 34 36 37 38 39
33 34 35 36 36 37 37 38 38 39 39 40 40 41 41 42 43 43 44 44 44 45 46 46 46 46 46 47 47 47 46 46 47 47 47 46 46 45 44 43 43 43 43 42 41 41 39 38 39 40 40 40 40 39 39 39 41 41 38 36 39 40 38 37 36 35 34 34 34 33 32 32 32 31 30 29 30 30 32 33 34 35 35 36 36
35 36 37 38 38 39 39 40 40 41 41 42 43 43 44 45 45 46 47 47 47 48 48 48 49 49 49 49 50 50 50 50 50 50 50 50 49 47 46 44 44 44 44 44 44 45 43 42 42 43 43 42 42 43 44 44 43 44 43 40 38 38 37 35 34 33 33 33 32 31 32 33 32 30 28 28 28 30 32 32 33 33 34 34 34
32 33 34 35 36 36 37 37 38 38 39 40 41 41 42 43 43 44 44 44 45 45 46 46 46 46 46 46 47 47 47 46 46 46 47 47 46 46 44 43 43 43 43 43 44 47 48 45 43 43 43 42 42 44 46 46 44 43 42 40 39 38 36 33 30 29 31 32 32 32 34 33 30 27 25 26 28 30 31 31 31 32 33 32 32
28 29 30 31 31 32 32 33 33 33 34 34 35 35 36 36 37 37 38 38 38 38 38 38 38 38 38 38 38 39 40 40 40 41 42 42 43 43 42 42 41 41 42 42 43 46 47 45 42 42 43 43 43 44 45 44 42 40 36 35 37 38 35 31 28 29 32 32 32 34 34 29 25 24 25 26 28 29 30 30 31 32 32 31 31
24 24 25 25 25 25 25 25 25 25 25 25 24 24 24 25 25 26 26 26 26 26 26 26 26 27 27 28 28 29 31 32 33 35 36 38 39 41 41 41 41 41 41 41 42 43 43 42 38 34 34 37 39 41 41 39 39 37 33 32 34 35 33 31 31 33 34 33 33 34 30 25 22 24 25 26 27 28 29 30 31 31 30 30 29
17 18 18 18 18 18 18 18 17 17 17 17 16 16 16 16 17 17 18 18 19 19 19 19 20 21 22 23 24 25 27 29 31 32 33 35 36 38 39 40 41 41 41 41 41 41 41 40 38 33 31 32 34 35 36 37 38 38 37 36 35 34 33 33 33 34 33 32 31 30 26 23 23 24 25 26 27 28 29 29 30 30 29 28 27
13 14 14 14 14 14 14 14 14 14 14 14 13 13 13 13 13 14 14 16 17 18 18 19 20 21 23 24 26 28 30 32 33 34 36 37 37 38 38 38 38 38 39 39 40 39 39 40 40 39 38 37 34 33 32 32 33 33 33 33 31 29 28 29 30 31 32 32 29 26 23 23 24 25 25 26 27 27 28 29 29 28 27 25 25
12 12 12 13 13 13 13 13 13 13 13 13 13 13 13 12 12 12 13 14 16 18 20 22 22 23 25 26 27 29 30 31 33 34 34 34 35 35 36 37 36 36 36 36 36 37 37 37 38 38 37 34 30 28 28 28 28 28 28 28 27 25 24 25 26 27 30 30 27 23 22 23 24 24 25 26 27 27 27 28 27 26 24 23 23
11 11 11 11 12 12 12 11 11 11 11 11 12 12 12 12 13 13 13 14 15 17 19 21 23 23 23 24 25 26 27 29 30 31 31 30 30 29 29 30 31 32 32 32 32 32 33 34 34 34 32 29 25 24 25 26 27 27 27 27 26 26 26 25 24 25 28 28 24 23 23 23 23 24 25 25 26 26 26 26 25 23 22 21 21
11 11 11 10 10 10 10 9 9 9 9 10 10 11 11 12 12 13 13 13 14 14 15 17 19 19 19 20 22 24 27 28 28 27 26 25 24 22 21 21 22 23 24 25 26 27 28 28 29 29 29 27 26 25 26 27 27 26 25 26 26 27 28 27 26 27 29 27 24 24 24 24 23 24 25 25 25 25 24 24 23 21 19 19 20
9 10 10 9 8 8 8 8 8 8 9 9 9 10 9 10 11 11 12 12 12 12 12 13 14 15 16 18 20 21 22 20 17 15 15 14 14 14 15 16 17 17 16 16 18 20 21 23 24 26 26 26 26 27 28 29 29 28 27 27 28 28 28 28 28 29 29 27 26 26 26 24 24 24 24 23 23 23 23 22 20 18 17 18 18
7 8 8 8 7 6 6 6 7 7 7 8 8 7 7 8 10 11 11 12 12 12 12 12 11 12 13 14 15 16 14 10 8 8 8 8 8 8 10 11 12 13 13 13 13 15 17 19 22 24 25 25 26 27 28 29 30 30 30 30 30 29 28 29 30 29 28 27 27 28 27 25 24 23 22 22 22 22 21 19 17 16 16 16 17
6 6 6 7 6 6 5 4 5 5 6 6 5 5 5 7 9 10 11 11 12 12 11 10 9 9 10 11 12 12 9 7 8 9 9 8 8 7 8 9 10 12 13 12 12 13 14 16 18 20 22 23 23 24 24 25 27 29 30 30 30 30 30 31 32 31 29 28 28 27 26 24 22 20 20 21 22 21 19 17 15 15 15 15 16
4 5 6 6 6 5 4 4 4 4 4 3 3 3 4 6 8 9 10 11 11 10 9 8 9 9 9 10 11 10 9 8 8 9 9 8 8 7 7 8 10 10 11 11 11 11 10 11 13 15 18 20 21 22 23 23 26 29 31 30 30 30 30 29 29 29 29 28 27 25 23 21 19 19 20 21 21 19 17 15 13 13 13 14 15
4 4 5 5 4 3 3 3 3 3 2 2 2 2 3 5 7 8 9 10 10 9 8 8 9 9 9 9 9 9 8 7 7 7 7 7 6 5 5 6 7 8 8 8 8 8 8 10 12 13 14 15 16 16 15 15 18 22 25 25 25 25 24 23 24 26 26 24 21 19 18 18 18 19 20 20 19 17 15 13 12 12 12 13 14
4 5 6 6 7 7 7 6 5 4 3 3 2 2 3 4 6 7 8 9 9 9 8 8 8 8 8 8 8 9 8 8 8 7 7 6 5 5 5 5 6 6 6 6 7 8 8 6 4 2 3 4 5 5 6 7 9 12 14 14 15 15 16 16 18 19 19 16 14 14 15 16 17 19 19 18 17 15 13 12 11 11 11 12 12
5 6 6 7 9 10 10 9 8 6 5 4 4 4 4 4 5 7 8 9 9 9 8 7 7 7 8 8 9 9 9 9 9 8 7 5 5 4 4 4 4 3 2 3 3 2 2 5 7 7 8 8 7 6 5 5 6 7 8 8 7 7 8 9 10 11 12 12 11 12 14 15 17 18 18 16 15 13 12 11 11 11 11 11 12
4 5 6 7 9 10 11 11 10 9 8 7 7 7 6 6 6 7 7 8 8 8 8 7 7 7 8 8 9 10 10 10 10 9 7 6 5 5 4 3 2 1 0 1 1 2 5 7 6 5 4 3 3 3 3 3 4 5 6 7 7 7 8 9 9 10 11 11 11 12 13 15 16 16 15 14 13 12 11 10 10 10 10 11 11
2 3 4 5 7 8 9 10 11 11 11 11 11 11 10 10 9 8 8 7 7 8 8 8 8 9 9 9 9 10 10 10 10 9 7 5 4 4 4 3 1 2 2 2 2 2 4 5 4 3 1 1 2 2 3 4 4 5 6 7 7 7 8 9 9 9 10 10 11 12 13 15 15 14 13 13 12 11 11 10 10 10 10 10 11
2 1 2 3 4 5 6 8 9 10 10 12 12 12 12 12 11 11 10 10 10 10 9 9 9 9 9 9 9 9 9 9 9 9 7 5 2 0 1 1 2 4 4 4 3 3 3 2 1 1 3 5 7 8 9 10 10 9 8 7 7 8 8 9 9 10 10 11 11 12 12 13 13 12 12 12 11 11 10 10 9 9 10 10 10
4 3 1 1 1 2 4 5 7 7 8 9 10 11 11 11 11 12 12 12 12 12 12 12 11 11 10 10 9 8 8 8 8 7 6 5 3 1 1 1 1 2 2 2 1 2 4 5 6 7 8 9 11 13 12 11 11 11 11 10 10 10 10 10 10 10 11 11 11 11 11 11 11 11 11 11 10 9 9 9 8 9 10 10 10
6 4 3 2 1 1 2 4 5 6 7 8 9 10 10 11 11 12 12 12 13 13 13 13 13 13 13 13 12 10 9 9 8 7 6 5 4 4 3 3 5 6 7 8 9 9 10 11 10 10 10 12 14 15 14 12 11 12 13 13 13 12 11 10 9 10 10 10 10 11 11 11 11 10 9 9 8 8 8 8 9 9 10 10 9
6 5 4 4 3 3 4 5 7 7 8 9 10 10 11 11 11 12 12 13 13 13 13 13 13 14 14 14 14 14 14 13 13 12 11 10 9 8 7 7 8 9 10 10 11 11 11 11 11 13 15 16 17 16 14 13 12 12 13 14 14 13 12 10 9 9 10 10 10 10 10 9 8 8 7 7 7 8 8 9 10 10 10 9 9
7 7 6 6 6 6 7 7 8 9 10 10 11 11 11 11 12 12 12 13 13 13 13 13 13 13 14 14 14 15 15 15 14 14 13 12 11 9 8 8 9 9 10 10 11 11 12 12 13 14 15 14 13 12 11 10 9 9 10 11 11 11 10 10 9 9 9 10 9 9 7 7 6 6 6 6 7 8 9 9 10 11 11 10 10
Wind_Direction
202 195 194 200 203 204 208 211 212 214 217 222 223 225 230 233 242 242 205 204 217 199 190 190 182 174 164 156 154 153 149 145 142 140 134 129 128 126 124 121 116 113 110 107 106 106 108 109 105 98 92 90 95 106 126 149 150 150 176 213 220 219 220 220 216 206 202 216 228 230 236 235 222 208 205 206 204 209 230 248 262 269 270 270 271
204 202 202 206 209 207 207 208 211 214 217 218 218 218 221 226 234 222 192 199 212 194 186 186 185 185 177 171 167 162 157 153 152 149 144 140 139 139 138 132 124 117 110 105 105 107 112 116 112 101 92 82 76 71 76 116 132 136 154 181 200 207 207 209 212 205 195 201 212 219 226 230 228 224 223 230 237 250 265 269 270 270 268 269 271
205 206 209 213 215 216 214 211 211 212 215 218 217 217 220 223 232 221 190 193 209 201 192 190 192 195 192 188 182 173 168 165 163 161 158 156 155 153 152 144 133 129 130 131 131 129 124 124 118 110 105 67 320 313 313 312 305 299 266 210 205 206 207 207 207 206 205 213 224 235 241 240 237 236 239 245 247 254 265 269 268 267 267 270 273
208 209 213 217 219 223 223 218 213 211 215 218 215 217 220 222 228 221 191 189 207 210 203 194 195 205 203 198 193 185 182 181 178 178 175 173 170 167 168 168 168 172 176 189 196 207 230 238 258 273 270 274 277 282 287 288 289 290 287 278 263 247 238 230 224 218 218 227 237 245 250 253 252 250 250 252 252 255 262 266 267 268 269 270 270
215 214 216 219 220 224 227 222 217 215 215 213 211 215 217 220 228 221 194 189 200 210 213 201 197 212 215 209 205 199 199 200 198 199 197 195 192 191 197 204 219 228 225 227 236 243 251 258 263 262 256 254 254 254 260 265 270 274 275 274 272 267 261 255 249 241 236 238 244 248 251 255 257 257 255 256 255 256 259 261 263 264 264 263 264
218 219 218 219 220 224 228 226 223 222 219 215 214 214 214 221 231 220 193 189 197 207 217 204 197 214 223 220 220 218 219 220 219 220 219 216 214 215 221 230 241 248 247 246 246 248 253 257 258 257 255 255 256 258 259 259 261 263 265 266 266 265 263 261 259 256 253 251 253 256 257 258 259 260 259 259 256 254 255 258 259 260 261 263 267
218 221 221 220 219 222 227 228 227 227 224 221 219 218 221 227 227 211 192 192 198 206 212 204 204 218 223 223 226 226 227 229 231 234 234 233 233 233 237 241 244 245 246 248 248 248 253 257 259 261 262 264 265 267 268 267 265 263 262 263 264 266 265 262 260 259 259 258 257 259 262 264 267 267 264 262 259 257 257 257 257 260 264 270 275
222 223 225 224 222 222 224 226 227 227 227 227 227 228 230 222 209 201 196 197 202 205 205 208 217 222 223 225 227 230 231 232 234 238 242 246 248 249 249 246 244 242 242 244 248 251 254 257 261 264 265 266 266 268 271 271 270 267 265 263 262 263 263 262 260 260 260 260 258 256 258 262 267 269 267 262 258 256 255 255 258 264 270 276 281
223 217 223 223 222 224 227 229 231 233 233 232 227 222 218 206 198 199 201 201 207 208 205 210 218 223 227 228 229 234 237 237 240 242 245 251 254 255 253 249 247 247 244 242 243 247 251 257 262 265 267 266 265 265 268 270 270 269 267 265 261 257 256 257 258 258 258 259 258 257 257 259 262 264 263 259 252 249 250 255 261 268 274 280 285
217 207 209 207 206 216 225 230 238 240 230 216 203 194 194 195 195 198 202 208 213 211 212 220 222 222 227 230 232 236 239 241 244 247 249 252 256 257 255 253 253 253 249 243 240 241 247 255 262 266 266 264 261 262 265 267 268 267 266 265 264 259 255 254 255 256 257 257 257 256 257 258 260 261 260 256 253 251 253 258 265 272 279 284 288
205 187 191 194 192 202 209 212 221 214 190 187 187 184 189 194 194 197 203 210 214 214 221 230 230 223 225 228 232 235 238 241 244 246 249 251 253 254 254 253 253 252 250 246 241 241 247 256 264 267 264 258 255 258 262 264 265 266 266 267 267 264 259 255 254 255 256 256 255 256 257 259 259 257 257 258 259 260 263 267 273 279 284 289 291
194 173 172 175 180 194 198 193 194 188 179 184 189 189 192 196 199 203 206 209 215 219 225 232 231 226 225 227 230 233 236 239 241 243 245 247 248 249 249 249 250 248 246 246 246 247 253 261 266 268 266 262 259 259 260 260 262 264 267 268 268 266 262 258 256 256 256 255 254 255 258 260 260 257 256 258 261 264 269 274 279 284 287 290 292
206 179 170 166 170 188 196 197 200 198 193 193 196 200 202 201 204 208 209 212 217 221 225 227 226 226 227 228 229 231 234 237 238 239 241 242 245 249 251 253 256 256 252 250 255 258 261 264 267 268 269 268 268 269 267 263 261 263 265 267 268 266 263 259 256 254 255 255 255 256 258 260 261 261 260 259 261 264 269 274 280 284 287 289 289
222 203 191 182 182 193 200 207 212 211 209 208 210 212 211 208 209 211 211 215 219 221 224 225 225 226 229 231 230 231 235 236 236 237 238 240 245 251 256 259 263 265 263 261 264 265 263 263 266 268 270 270 271 273 272 268 263 261 263 265 267 266 263 260 256 253 253 255 257 257 258 258 259 259 261 262 263 266 270 275 280 283 286 287 287
224 219 223 228 232 232 222 220 222 218 216 219 220 219 216 215 216 217 216 217 221 223 225 227 227 225 225 230 234 236 238 240 240 239 239 242 247 252 257 260 261 264 266 268 270 270 266 265 265 267 269 269 269 269 268 265 262 260 260 262 265 264 261 259 256 253 252 254 256 255 254 255 257 258 260 262 265 270 275 279 282 284 284 284 285
231 221 221 227 236 244 239 233 232 229 227 228 224 221 220 220 221 223 224 223 224 228 230 234 237 234 227 230 235 236 236 236 238 242 245 249 253 254 256 259 261 262 264 265 266 267 267 268 268 268 269 268 266 264 260 257 256 256 258 260 263 262 258 255 254 252 251 253 257 258 257 257 258 258 260 264 269 274 279 281 283 284 283 284 285
261 240 223 214 216 225 232 234 234 232 232 234 232 229 228 226 224 226 229 229 229 232 235 239 245 245 238 234 236 241 243 239 235 241 246 249 253 255 256 256 258 259 260 261 262 263 265 268 269 270 269 267 264 260 255 252 251 252 254 257 260 260 254 251 250 249 250 252 256 258 258 257 257 258 262 268 273 277 280 282 283 284 285 286 287
274 264 242 222 215 214 218 227 233 232 231 233 234 235 235 233 230 230 232 234 235 236 239 244 248 249 245 241 242 248 255 253 241 239 243 245 248 252 254 255 256 257 258 259 261 262 264 267 268 268 268 266 264 260 256 251 249 248 249 252 257 257 252 249 248 248 249 251 253 254 254 254 257 261 266 271 275 278 280 282 284 286 287 288 289
243 244 242 239 234 229 225 227 230 228 228 230 232 234 235 236 235 235 235 237 239 242 245 248 250 250 249 249 249 252 257 259 252 244 244 246 247 250 252 254 256 258 258 259 260 261 263 265 266 267 266 265 263 261 259 255 251 248 247 250 255 255 250 246 247 247 247 248 249 250 252 256 260 265 270 274 277 280 282 285 288 290 291 292 292
236 240 242 241 240 238 236 237 237 235 234 233 230 230 231 234 235 237 238 240 242 245 246 246 247 249 250 250 252 254 257 259 258 253 250 249 250 252 253 255 256 257 257 259 260 262 263 264 265 265 264 262 261 260 259 257 253 249 248 250 253 253 248 245 245 245 245 246 248 251 255 259 264 268 273 277 280 283 287 290 292 293 293 293 292
258 258 256 253 250 247 243 240 240 239 238 237 236 233 233 233 235 238 241 242 244 245 245 245 246 248 250 251 253 255 257 257 258 258 255 254 255 257 258 258 258 258 260 262 263 264 264 264 264 263 261 260 259 258 257 256 253 250 250 251 250 248 246 244 243 243 244 246 250 254 258 262 266 271 275 279 284 288 290 292 292 291 290 289 289
262 263 263 261 259 257 253 250 249 244 239 236 236 236 237 237 238 239 241 241 242 243 244 246 247 249 252 254 257 259 259 258 258 258 257 257 259 262 264 264 263 264 265 266 267 267 266 264 262 261 260 260 259 258 256 254 252 250 250 250 247 244 243 242 242 243 246 249 251 255 259 264 268 273 278 282 286 289 290 290 288 287 286 286 286
252 256 259 260 261 261 261 261 260 256 248 242 240 240 240 241 241 242 242 243 244 245 247 250 252 255 258 261 263 264 263 261 260 258 258 259 261 264 266 267 267 268 269 269 269 269 268 266 263 261 260 259 259 258 255 253 251 249 249 247 244 242 242 241 243 245 247 249 253 257 261 266 270 274 278 282 286 287 287 286 284 284 284 285 287
252 255 257 258 259 259 258 258 258 256 253 251 249 248 247 246 246 246 246 247 248 249 251 253 255 257 260 262 263 263 263 262 261 260 260 262 264 266 267 268 270 271 272 272 272 271 270 268 265 262 259 258 258 257 256 254 251 247 245 243 241 241 242 243 243 245 247 249 254 259 263 266 270 273 277 282 285 285 284 283 283 285 286 288 289
254 254 255 255 255 254 253 253 254 253 253 253 253 253 252 252 251 251 252 252 252 253 254 255 256 258 260 261 261 261 261 262 262 263 264 265 266 268 269 270 271 272 273 274 273 272 270 267 265 263 260 258 256 257 259 259 253 245 239 239 240 240 242 244 244 245 249 252 256 260 263 265 268 274 279 282 283 283 282 283 285 286 289 291 292
254 254 254 254 254 254 254 254 255 255 256 256 255 255 255 254 254 255 255 256 256 257 257 258 259 260 261 262 262 263 263 264 265 266 267 268 270 270 271 272 272 273 273 273 273 273 270 266 264 263 261 258 256 256 260 263 260 251 237 232 236 239 239 242 244 246 249 253 255 258 261 264 269 275 279 279 280 281 282 284 286 289 291 293 294
257 258 258 258 258 258 259 259 259 260 260 260 260 259 259 258 258 258 258 258 258 258 258 259 259 260 261 261 262 263 264 265 266 267 267 268 270 271 272 273 273 272 270 269 270 271 269 266 262 261 260 259 257 257 260 262 263 258 242 227 228 234 236 237 241 245 248 251 254 256 260 266 271 274 275 276 278 281 283 286 289 291 293 294 295
259 260 261 261 262 262 262 262 262 262 263 263 263 263 262 262 262 262 262 262 261 261 261 261 261 262 262 263 264 265 267 268 269 269 269 270 270 270 270 270 270 269 268 267 269 271 268 265 262 261 262 262 262 262 262 260 259 259 252 238 229 229 231 233 236 240 244 247 251 256 262 268 271 270 271 275 279 282 285 288 290 293 294 296 297
259 260 261 262 263 263 264 264 264 265 265 265 265 265 265 265 265 265 265 265 265 265 266 266 266 266 267 267 267 268 269 270 271 272 272 271 271 271 269 268 266 265 264 265 267 268 265 261 260 261 262 264 265 265 264 263 259 256 253 248 238 229 229 232 234 237 243 249 254 260 265 267 266 265 269 276 281 284 286 289 291 294 295 297 298
263 264 265 265 266 267 267 267 267 267 268 268 268 268 268 268 268 268 268 268 269 269 269 269 270 270 270 271 271 270 270 269 270 271 271 271 271 270 268 266 263 261 260 260 262 263 262 258 255 256 260 263 265 264 262 262 262 257 250 245 240 234 231 231 231 236 244 250 256 262 264 262 261 264 272 278 281 284 287 289 292 295 296 298 299
271 271 271 271 271 272 272 272 272 272 272 272 273 273 273 273 273 273 273 273 273 273 273 273 273 273 272 272 271 270 270 268 267 267 267 268 268 268 267 266 263 259 257 257 257 259 261 261 260 258 260 261 261 260 258 259 262 262 254 245 239 235 232 232 235 241 246 251 257 260 259 257 261 269 276 279 281 284 287 290 293 296 298 298 298
276 276 275 276 276 277 277 278 278 278 279 279 279 279 279 280 280 279 279 279 279 279 279 278 277 276 275 273 271 270 271 271 270 268 267 266 266 266 266 265 264 262 259 257 256 255 258 263 266 264 261 259 257 256 256 257 260 262 261 256 247 238 235 239 245 247 249 252 257 257 254 256 265 272 277 280 283 285 287 290 294 296 297 297 297
284 283 284 283 282 283 282 282 283 283 284 283 283 284 285 287 288 288 288 287 287 285 284 284 283 282 282 281 280 279 277 276 275 274 272 270 268 266 265 263 262 262 260 259 258 255 254 258 263 265 265 266 266 263 263 264 264 264 266 265 255 242 238 243 248 249 252 255 256 253 253 260 268 272 277 282 283 284 287 291 294 295 294 295 297
291 291 292 291 289 288 287 286 287 287 286 287 288 290 290 289 290 290 290 292 293 292 291 290 288 287 287 287 286 285 283 281 279 277 275 273 271 269 268 266 263 262 261 259 258 257 255 255 258 262 265 267 269 270 270 269 267 267 269 267 257 248 248 254 256 255 256 255 252 251 256 264 268 271 276 280 282 284 288 291 292 292 292 295 298
295 294 293 292 291 289 288 289 290 289 290 291 293 293 293 292 291 290 291 292 293 294 294 294 294 293 291 289 287 286 285 284 283 282 279 277 274 271 269 268 267 265 263 262 260 259 258 256 256 259 262 263 263 264 266 266 265 264 264 261 257 257 264 270 268 260 251 246 246 252 259 264 267 270 274 279 282 285 288 289 289 289 291 295 300
300 298 295 291 287 284 283 285 286 287 289 291 291 292 293 293 293 293 293 292 291 291 292 293 293 293 292 292 291 292 291 290 289 287 284 282 279 276 273 270 269 267 266 266 263 261 259 258 257 257 258 258 255 253 255 257 257 256 256 256 258 262 266 270 269 257 245 243 249 257 260 263 266 270 275 280 282 284 286 286 287 288 291 296 301
308 307 303 296 289 283 279 277 277 279 282 283 285 289 292 293 296 298 299 300 300 299 298 297 297 298 298 298 297 295 295 295 294 291 288 285 283 283 281 278 274 273 271 268 265 262 260 259 257 255 254 252 249 246 246 248 250 251 253 256 260 262 264 267 267 255 244 244 252 257 260 264 269 273 276 279 280 283 284 283 283 286 291 298 301
316 313 311 307 299 288 279 275 274 276 279 283 287 291 296 300 304 308 312 316 318 319 318 315 312 311 307 304 303 304 305 306 307 307 304 299 292 287 284 281 279 280 278 271 264 260 258 255 253 250 249 248 246 244 244 246 248 251 253 255 258 260 261 264 264 255 246 244 248 253 258 264 268 271 276 279 281 282 281 279 281 287 293 298 302
324 321 324 325 315 299 285 281 282 286 290 292 295 300 306 311 315 319 326 333 337 339 338 333 328 324 322 322 325 326 324 327 344 351 341 330 319 304 294 288 284 283 280 273 265 260 255 250 248 246 246 246 246 245 246 247 248 250 251 251 253 255 257 259 260 254 245 241 246 252 257 262 266 271 277 281 280 279 277 278 283 289 293 298 304
331 326 334 335 324 309 297 295 302 309 309 305 305 312 319 321 324 332 341 348 350 349 347 346 347 348 352 359 1 356 349 350 357 354 345 340 340 334 319 304 293 287 284 282 280 274 264 257 253 250 249 249 249 248 248 247 245 245 247 248 250 252 252 253 253 248 240 239 245 251 256 261 267 274 279 279 276 275 275 278 283 287 293 300 306
340 338 342 333 319 308 304 310 321 326 323 317 315 318 324 328 335 343 352 356 356 356 1 10 17 20 25 27 26 25 22 11 359 351 344 342 343 337 322 306 295 292 293 295 295 292 281 271 266 262 258 256 254 252 251 250 247 243 241 243 246 247 244 241 239 237 235 238 244 249 255 262 270 276 275 273 271 270 272 275 279 285 292 300 307
0 4 3 356 350 355 0 4 5 356 340 334 334 334 337 342 346 353 360 2 3 7 19 29 32 35 39 36 31 30 27 15 1 353 350 350 351 345 331 320 314 312 309 301 292 280 265 260 264 264 259 253 250 247 245 242 237 233 229 230 234 235 233 231 231 232 234 237 241 247 256 265 270 271 269 266 265 265 267 271 276 283 290 299 308
53 50 41 37 40 45 51 54 53 48 39 30 21 9 1 357 358 2 6 8 12 17 22 25 24 23 23 20 15 13 10 6 2 359 354 353 357 356 352 353 346 330 311 292 271 253 242 239 240 207 155 153 167 179 181 188 203 212 212 212 218 223 227 230 233 236 238 240 245 253 261 266 268 266 263 261 260 260 263 268 274 282 290 299 309
78 71 59 52 50 49 52 57 58 55 50 44 38 35 29 20 17 18 15 13 15 18 18 17 13 6 1 357 354 354 356 358 359 357 351 349 349 347 351 6 5 338 305 291 280 266 101 94 103 111 111 110 117 132 151 175 201 218 223 224 228 233 235 237 240 246 252 256 261 265 267 266 264 261 258 257 258 259 262 267 274 283 293 302 312
83 78 69 63 59 54 54 58 60 60 60 57 50 46 42 35 30 28 23 18 16 16 15 14 10 4 360 356 352 350 348 347 347 347 341 335 335 336 339 351 0 4 52 57 59 95 99 104 117 125 110 97 119 152 176 197 212 228 242 250 255 256 255 254 255 259 263 268 271 270 267 263 258 255 255 257 260 262 265 269 276 285 295 305 315
97 82 72 66 64 60 58 58 59 60 62 61 58 52 48 43 38 33 28 25 22 19 16 12 8 3 0 359 355 350 344 337 333 331 328 325 331 344 348 355 32 82 84 66 54 87 119 138 156 174 208 305 301 309 321 317 297 271 259 260 266 267 263 262 265 269 273 275 272 267 262 258 255 254 257 260 262 264 267 272 280 288 296 305 315
186 139 79 64 63 62 61 60 58 56 56 58 57 54 50 47 44 41 38 36 34 30 26 21 15 8 3 358 356 355 351 342 331 321 313 302 288 116 108 119 113 106 103 98 85 81 94 111 135 304 327 338 342 343 341 337 330 319 299 286 286 288 286 286 288 287 280 271 262 256 254 253 254 256 259 260 260 263 268 273 282 290 295 302 314
212 206 176 82 54 50 59 63 60 55 54 54 53 51 47 43 40 39 38 37 37 36 33 30 27 24 20 15 10 6 0 350 337 320 301 284 269 235 183 164 101 63 56 53 35 13 6 3 1 358 353 346 338 332 329 326 323 318 312 305 299 295 292 291 290 285 275 265 257 253 251 250 252 254 254 254 256 260 267 275 284 290 293 299 312
216 213 199 176 170 108 76 75 71 67 64 60 55 50 46 40 36 33 32 32 31 31 30 28 27 25 25 25 23 20 15 8 0 350 336 327 332 344 350 345 346 350 350 345 342 342 344 344 342 337 328 319 316 316 318 315 308 303 299 297 294 291 288 284 278 272 266 262 258 254 251 249 248 247 247 250 256 264 274 282 286 288 291 298 311
211 204 187 169 159 144 114 95 87 81 75 68 61 55 49 44 39 34 31 30 29 27 26 24 22 21 21 21 20 19 18 17 15 13 9 4 1 359 352 341 336 334 333 330 326 323 321 318 312 306 304 305 308 310 311 308 300 290 283 280 278 277 276 272 266 262 261 260 257 254 249 245 242 241 245 254 265 273 282 287 288 288 291 299 311
195 184 167 152 144 133 116 101 90 81 75 69 63 58 51 46 42 37 33 30 29 28 26 25 23 20 19 19 18 17 17 16 15 14 12 8 2 355 344 330 316 308 302 298 295 293 293 293 294 294 296 302 309 313 315 312 303 288 275 267 261 257 256 255 254 255 257 256 253 247 242 238 238 241 252 263 271 278 283 287 288 290 295 302 311